Ерментау

Kazakhstan     51˚37′01″N   73˚10′01″E
temp.,
°C
wind,
m/s
gust,
m/s
humid.,
%
clouds,
%
prec.,
mm/h
press.,
hPa
HPBL,
m
29 november, sun
sun2923:00−13˚n5996100 4.5 1030347
02:00−13˚nnw4996100 0.8 1032350
05:00−13˚nw71095100 2.3 1035422
08:00−14˚nw61095100 1.3 1037418
11:00−13˚nw6995100 2.2 1039425
14:00−13˚nw6995100 0.6 1040447
17:00−14˚nw51096100 1.1 1043366
20:00−16˚nw3698100 0.3 1044185
30 november, mon
mon3023:00−19˚wnw2399100 0.4 104664
02:00−19˚w2299100 0.1 104749
05:00−20˚w2299100 0.2 104936
08:00−21˚w1299100 0.1 105021
11:00−18˚wnw1196100 0.1 105167
14:00−18˚nw129796 0.0 105136
17:00−21˚nne1110085 0.0 105220
20:00−21˚e1110093 0.0 105320
1 december, tue
tue123:00−21˚ese1110097 0.1 105320
02:00−21˚ese2210099 0.0 105320
05:00−21˚ese2210074 0.0 105320
08:00−21˚ese22970 0.0 105320
11:00−17˚e23930 0.0 105494
14:00−15˚e22930 0.0 105341
17:00−18˚e22940 0.0 105320
20:00−18˚ese22950 0.0 105320
2 december, wed
wed223:00−17˚se23930 0.0 105320
02:00−17˚ese22920 0.0 105220
05:00−18˚ese22940 0.0 105220
08:00−18˚ese22940 0.0 105120
11:00−15˚ese24910 0.0 1050129
14:00−15˚e22920 0.0 104855
17:00−18˚e33960 0.0 104722
20:00−19˚ese33971 0.0 104739
3 december, thu
thu323:00−19˚ese33930 0.0 104634
02:00−19˚ese33910 0.0 104531
05:00−20˚ese33930 0.0 104431
08:00−20˚ese34950 0.0 104469
11:00−17˚ese38920 0.0 1043187
14:00−17˚e38950 0.0 1042183
17:00−20˚e36998 0.0 1042102
20:00−21˚ese3610073 0.0 1042123